| time (UTC) | temp C | wind direction | speed KPH | gust KPH | rain 1hr cm | rain 24hr cm | rain mn cm | humidity % | barometer mb |
| 20260502130404 | 13 | 145 | 0.0 | 3.2 | 0.00 | 0.00 | 0.00 | 94 | 1021.3 |
| 20260502123347 | 10 | 316 | 0.0 | 0.0 | 0.00 | 0.00 | 0.00 | 99 | 1020.7 |
| 20260502122844 | 9 | 249 | 0.0 | 0.0 | 0.00 | 0.00 | 0.00 | 99 | 1020.7 |
| 20260502122339 | 9 | 135 | 0.0 | 0.0 | 0.00 | 0.00 | 0.00 | 99 | 1020.5 |
| 20260502121838 | 9 | 44 | 0.0 | 0.0 | 0.00 | 0.00 | 0.00 | 99 | 1020.5 |
| 20260502121335 | 8 | 76 | 0.0 | 1.6 | 0.00 | 0.00 | 0.00 | 99 | 1020.3 |
| 20260502120832 | 9 | 32 | 0.0 | 1.6 | 0.00 | 0.00 | 0.00 | 99 | 1020.2 |
| 20260502120328 | 8 | 349 | 0.0 | 1.6 | 0.00 | 0.00 | 0.00 | 99 | 1020.2 |
| 20260502115826 | 8 | 34 | 0.0 | 1.6 | 0.00 | 0.00 | 0.00 | 99 | 1020.2 |
| 20260502115323 | 8 | 84 | 0.0 | 1.6 | 0.00 | 0.00 | 0.00 | 99 | 1020.1 |
| 20260502114819 | 9 | 98 | 0.0 | 1.6 | 0.00 | 0.00 | 0.00 | 99 | 1020.1 |
| 20260502114316 | 9 | 116 | 0.0 | 1.6 | 0.00 | 0.00 | 0.00 | 99 | 1019.8 |
| 20260502113813 | 9 | 79 | 1.6 | 3.2 | 0.00 | 0.00 | 0.00 | 99 | 1019.8 |
| 20260502113311 | 8 | 142 | 0.0 | 1.6 | 0.00 | 0.00 | 0.00 | 99 | 1019.8 |
| 20260502112809 | 8 | 103 | 0.0 | 3.2 | 0.00 | 0.00 | 0.00 | 99 | 1019.6 |
| 20260502112306 | 8 | 103 | 0.0 | 1.6 | 0.00 | 0.00 | 0.00 | 99 | 1019.5 |
| 20260502111803 | 8 | 119 | 0.0 | 1.6 | 0.00 | 0.00 | 0.00 | 99 | 1019.5 |
| 20260502111301 | 8 | 124 | 0.0 | 3.2 | 0.00 | 0.00 | 0.00 | 99 | 1019.4 |
| 20260502110758 | 8 | 110 | 0.0 | 1.6 | 0.00 | 0.00 | 0.00 | 99 | 1019.4 |
| 20260502110256 | 8 | 116 | 0.0 | 1.6 | 0.00 | 0.00 | 0.00 | 99 | 1019.3 |
| 20260502105754 | 8 | 148 | 0.0 | 0.0 | 0.00 | 0.00 | 0.00 | 99 | 1019.5 |
| 20260502105250 | 8 | 224 | 0.0 | 0.0 | 0.00 | 0.00 | 0.00 | 99 | 1019.4 |
| 20260502104748 | 8 | 58 | 0.0 | 1.6 | 0.00 | 0.00 | 0.00 | 99 | 1019.6 |
| 20260502104245 | 8 | 26 | 1.6 | 3.2 | 0.00 | 0.00 | 0.00 | 99 | 1019.6 |
| 20260502103742 | 8 | 352 | 0.0 | 1.6 | 0.00 | 0.00 | 0.00 | 99 | 1019.4 |
| 20260502103239 | 8 | 60 | 0.0 | 1.6 | 0.00 | 0.00 | 0.00 | 99 | 1019.4 |
| 20260502102736 | 8 | 10 | 0.0 | 1.6 | 0.00 | 0.00 | 0.00 | 99 | 1019.2 |
| 20260502102233 | 8 | 115 | 0.0 | 1.6 | 0.00 | 0.00 | 0.00 | 99 | 1019.3 |
| 20260502101731 | 9 | 142 | 1.6 | 1.6 | 0.00 | 0.00 | 0.00 | 99 | 1019.2 |
| 20260502101229 | 9 | 84 | 1.6 | 3.2 | 0.00 | 0.00 | 0.00 | 99 | 1019.1 |
| 20260502100727 | 9 | 101 | 3.2 | 3.2 | 0.00 | 0.00 | 0.00 | 99 | 1019.2 |
| 20260502100225 | 9 | 119 | 1.6 | 3.2 | 0.00 | 0.00 | 0.00 | 99 | 1019.0 |
| 20260502091159 | 8 | 147 | 0.0 | 0.0 | 0.00 | 0.00 | 0.00 | 99 | 1019.0 |
| 20260502090656 | 8 | 44 | 0.0 | 1.6 | 0.00 | 0.00 | 0.00 | 99 | 1018.8 |
| 20260502090154 | 8 | 219 | 0.0 | 0.0 | 0.00 | 0.00 | 0.00 | 99 | 1018.9 |
| 20260502071049 | 10 | 235 | 0.0 | 0.0 | 0.00 | 0.00 | 0.00 | 98 | 1019.0 |
| 20260502070547 | 10 | 109 | 0.0 | 1.6 | 0.00 | 0.00 | 0.00 | 98 | 1018.9 |
| 20260502070045 | 10 | 103 | 0.0 | 3.2 | 0.00 | 0.00 | 0.00 | 98 | 1019.1 |
| 20260502065543 | 10 | 162 | 1.6 | 3.2 | 0.00 | 0.00 | 0.00 | 98 | 1019.2 |
| 20260502065035 | 10 | 88 | 0.0 | 0.0 | 0.00 | 0.00 | 0.00 | 98 | 1019.3 |
| 20260502064533 | 10 | 76 | 0.0 | 0.0 | 0.00 | 0.00 | 0.00 | 98 | 1019.2 |
| 20260502064030 | 10 | 76 | 0.0 | 1.6 | 0.00 | 0.00 | 0.00 | 98 | 1019.2 |
| 20260502063528 | 10 | 119 | 0.0 | 1.6 | 0.00 | 0.00 | 0.00 | 98 | 1019.2 |
| 20260502063025 | 10 | 124 | 0.0 | 0.0 | 0.00 | 0.00 | 0.00 | 98 | 1019.1 |
| 20260502062522 | 10 | 130 | 0.0 | 1.6 | 0.00 | 0.00 | 0.00 | 98 | 1019.3 |
| 20260502062020 | 10 | 124 | 0.0 | 0.0 | 0.00 | 0.00 | 0.00 | 98 | 1019.2 |
| 20260502061512 | 10 | 235 | 0.0 | 0.0 | 0.00 | 0.00 | 0.00 | 97 | 1019.2 |
| 20260502061009 | 10 | 126 | 0.0 | 0.0 | 0.00 | 0.00 | 0.00 | 97 | 1019.2 |
| 20260502060504 | 10 | 150 | 0.0 | 1.6 | 0.00 | 0.00 | 0.00 | 97 | 1019.2 |
| 20260502060001 | 11 | 74 | 0.0 | 0.0 | 0.00 | 0.00 | 0.00 | 97 | 1018.9 |
| 20260502055459 | 11 | 141 | 0.0 | 0.0 | 0.00 | 0.00 | 0.00 | 97 | 1019.0 |
| 20260502054958 | 11 | 76 | 0.0 | 0.0 | 0.00 | 0.00 | 0.00 | 97 | 1019.2 |
| 20260502054455 | 11 | 212 | 0.0 | 0.0 | 0.00 | 0.00 | 0.00 | 97 | 1019.1 |
| 20260502053952 | 11 | 137 | 0.0 | 0.0 | 0.00 | 0.00 | 0.00 | 96 | 1019.1 |
| 20260502053449 | 11 | 89 | 0.0 | 0.0 | 0.00 | 0.00 | 0.00 | 96 | 1019.1 |
| 20260502052947 | 11 | 113 | 0.0 | 1.6 | 0.00 | 0.00 | 0.00 | 96 | 1019.2 |
| 20260502052445 | 11 | 104 | 0.0 | 1.6 | 0.00 | 0.00 | 0.00 | 96 | 1019.3 |
| 20260502051944 | 11 | 89 | 0.0 | 1.6 | 0.00 | 0.00 | 0.00 | 95 | 1019.1 |
| 20260502051441 | 11 | 326 | 0.0 | 0.0 | 0.00 | 0.00 | 0.00 | 96 | 1019.1 |
| 20260502050938 | 11 | 38 | 0.0 | 0.0 | 0.00 | 0.00 | 0.00 | 96 | 1019.1 |
| 20260502050434 | 11 | 141 | 0.0 | 0.0 | 0.00 | 0.00 | 0.00 | 95 | 1019.2 |
| 20260502045932 | 11 | 139 | 0.0 | 1.6 | 0.00 | 0.00 | 0.00 | 95 | 1019.1 |
| 20260502045428 | 12 | 138 | 0.0 | 1.6 | 0.00 | 0.00 | 0.00 | 94 | 1019.1 |
| 20260502044925 | 12 | 129 | 0.0 | 0.0 | 0.00 | 0.00 | 0.00 | 94 | 1018.9 |
| 20260502044421 | 12 | 13 | 0.0 | 1.6 | 0.00 | 0.00 | 0.00 | 94 | 1019.1 |
| 20260502043918 | 12 | 66 | 0.0 | 0.0 | 0.00 | 0.00 | 0.00 | 94 | 1018.9 |
| 20260502043416 | 12 | 230 | 0.0 | 0.0 | 0.00 | 0.00 | 0.00 | 94 | 1019.1 |
| 20260502042915 | 12 | 68 | 0.0 | 3.2 | 0.00 | 0.00 | 0.00 | 94 | 1019.2 |
| 20260502042413 | 12 | 80 | 1.6 | 3.2 | 0.00 | 0.00 | 0.00 | 94 | 1019.2 |
| 20260502041910 | 12 | 89 | 0.0 | 1.6 | 0.00 | 0.00 | 0.00 | 93 | 1019.2 |
| 20260502041408 | 12 | 110 | 0.0 | 1.6 | 0.00 | 0.00 | 0.00 | 93 | 1018.9 |
| 20260502040905 | 12 | 116 | 1.6 | 1.6 | 0.00 | 0.00 | 0.00 | 92 | 1018.9 |
| 20260502040401 | 12 | 38 | 0.0 | 0.0 | 0.00 | 0.00 | 0.00 | 92 | 1019.0 |
| 20260502035857 | 13 | 129 | 0.0 | 0.0 | 0.00 | 0.00 | 0.00 | 92 | 1018.8 |
| 20260502035354 | 13 | 230 | 0.0 | 0.0 | 0.00 | 0.00 | 0.00 | 91 | 1018.9 |
| 20260502034851 | 13 | 113 | 0.0 | 0.0 | 0.00 | 0.00 | 0.00 | 91 | 1019.0 |
| 20260502034350 | 13 | 103 | 0.0 | 0.0 | 0.00 | 0.00 | 0.00 | 91 | 1019.0 |
| 20260502033848 | 13 | 89 | 0.0 | 0.0 | 0.00 | 0.00 | 0.00 | 90 | 1019.0 |
| 20260502033345 | 13 | 93 | 0.0 | 1.6 | 0.00 | 0.00 | 0.00 | 90 | 1019.0 |
| 20260502032842 | 13 | 85 | 1.6 | 1.6 | 0.00 | 0.00 | 0.00 | 89 | 1018.9 |
| 20260502032338 | 13 | 133 | 0.0 | 1.6 | 0.00 | 0.00 | 0.00 | 88 | 1018.8 |
| 20260502031836 | 14 | 89 | 0.0 | 0.0 | 0.00 | 0.00 | 0.00 | 87 | 1018.6 |
| 20260502031334 | 14 | 230 | 0.0 | 0.0 | 0.00 | 0.00 | 0.00 | 87 | 1018.7 |
| 20260502030832 | 14 | 66 | 0.0 | 0.0 | 0.00 | 0.00 | 0.00 | 87 | 1018.6 |
| 20260502030330 | 14 | 77 | 0.0 | 1.6 | 0.00 | 0.00 | 0.00 | 87 | 1018.6 |
| 20260502025826 | 14 | 106 | 0.0 | 3.2 | 0.00 | 0.00 | 0.00 | 86 | 1018.7 |
| 20260502025324 | 15 | 96 | 0.0 | 1.6 | 0.00 | 0.00 | 0.00 | 86 | 1018.6 |
| 20260502024822 | 15 | 44 | 0.0 | 0.0 | 0.00 | 0.00 | 0.00 | 85 | 1018.7 |
| 20260502024320 | 15 | 235 | 0.0 | 0.0 | 0.00 | 0.00 | 0.00 | 85 | 1018.5 |
| 20260502023817 | 15 | 230 | 0.0 | 0.0 | 0.00 | 0.00 | 0.00 | 84 | 1018.4 |
| 20260502023315 | 15 | 129 | 0.0 | 0.0 | 0.00 | 0.00 | 0.00 | 85 | 1018.4 |
| 20260502022813 | 15 | 293 | 0.0 | 0.0 | 0.00 | 0.00 | 0.00 | 85 | 1018.6 |
| 20260502022309 | 15 | 131 | 0.0 | 3.2 | 0.00 | 0.00 | 0.00 | 84 | 1018.6 |
| 20260502021806 | 15 | 50 | 0.0 | 0.0 | 0.00 | 0.00 | 0.00 | 83 | 1018.3 |
| 20260502021303 | 15 | 37 | 0.0 | 0.0 | 0.00 | 0.00 | 0.00 | 82 | 1018.2 |
| 20260502020800 | 15 | 47 | 0.0 | 1.6 | 0.00 | 0.00 | 0.00 | 81 | 1018.0 |
| 20260502020257 | 15 | 49 | 0.0 | 1.6 | 0.00 | 0.00 | 0.00 | 80 | 1017.9 |
| 20260502015755 | 15 | 75 | 0.0 | 1.6 | 0.00 | 0.00 | 0.00 | 81 | 1018.1 |
| 20260502015251 | 15 | 65 | 1.6 | 1.6 | 0.00 | 0.00 | 0.00 | 80 | 1017.8 |
| 20260502014749 | 15 | 259 | 0.0 | 0.0 | 0.00 | 0.00 | 0.00 | 78 | 1017.7 |
| 20260502014245 | 15 | 224 | 0.0 | 0.0 | 0.00 | 0.00 | 0.00 | 78 | 1017.6 |
| 20260502013742 | 15 | 114 | 1.6 | 1.6 | 0.00 | 0.00 | 0.00 | 78 | 1017.4 |
| 20260502013237 | 15 | 55 | 0.0 | 0.0 | 0.00 | 0.00 | 0.00 | 78 | 1017.0 |
| 20260502012734 | 15 | 309 | 0.0 | 1.6 | 0.00 | 0.00 | 0.00 | 78 | 1016.9 |
| 20260502012232 | 15 | 52 | 0.0 | 1.6 | 0.00 | 0.00 | 0.00 | 77 | 1016.8 |
| 20260502011729 | 15 | 315 | 0.0 | 0.0 | 0.00 | 0.00 | 0.00 | 77 | 1017.0 |
| 20260502011225 | 15 | 333 | 0.0 | 3.2 | 0.00 | 0.00 | 0.00 | 76 | 1016.7 |
| 20260502010723 | 15 | 257 | 0.0 | 3.2 | 0.00 | 0.00 | 0.00 | 76 | 1016.8 |
| 20260502010218 | 15 | 0 | 0.0 | 3.2 | 0.00 | 0.00 | 0.00 | 76 | 1016.8 |
| 20260502005716 | 16 | 212 | 0.0 | 3.2 | 0.00 | 0.00 | 0.00 | 76 | 1016.9 |
| 20260502005214 | 16 | 224 | 0.0 | 0.0 | 0.00 | 0.00 | 0.00 | 76 | 1016.7 |
| 20260502004710 | 16 | 44 | 0.0 | 0.0 | 0.00 | 0.00 | 0.00 | 76 | 1016.5 |
| 20260502004206 | 16 | 10 | 0.0 | 1.6 | 0.00 | 0.00 | 0.00 | 74 | 1016.5 |
| 20260502003704 | 16 | 256 | 0.0 | 0.0 | 0.00 | 0.00 | 0.00 | 74 | 1016.5 |
| 20260502003202 | 16 | 303 | 0.0 | 1.6 | 0.00 | 0.00 | 0.00 | 74 | 1016.4 |
| 20260502002657 | 16 | 147 | 0.0 | 3.2 | 0.00 | 0.00 | 0.00 | 74 | 1016.3 |
| 20260502002155 | 16 | 328 | 1.6 | 3.2 | 0.00 | 0.00 | 0.00 | 73 | 1016.6 |
| 20260502001652 | 16 | 226 | 0.0 | 1.6 | 0.00 | 0.00 | 0.00 | 72 | 1016.5 |
| 20260502001150 | 16 | 255 | 0.0 | 3.2 | 0.00 | 0.00 | 0.00 | 72 | 1016.6 |
| 20260502000647 | 16 | 306 | 1.6 | 3.2 | 0.00 | 0.00 | 0.00 | 73 | 1016.4 |
| 20260502000145 | 16 | 32 | 0.0 | 0.0 | 0.00 | 0.00 | 0.00 | 74 | 1016.4 |
| 20260501235641 | 16 | 308 | 0.0 | 3.2 | 0.00 | 0.00 | 0.00 | 72 | 1016.0 |
| 20260501235137 | 16 | 230 | 0.0 | 3.2 | 0.00 | 0.00 | 0.00 | 72 | 1015.7 |
| 20260501234632 | 16 | 241 | 1.6 | 1.6 | 0.00 | 0.00 | 0.00 | 74 | 1015.7 |
| 20260501234130 | 16 | 292 | 1.6 | 4.8 | 0.00 | 0.00 | 0.00 | 74 | 1015.7 |
| 20260501233628 | 16 | 287 | 1.6 | 3.2 | 0.00 | 0.00 | 0.00 | 73 | 1015.7 |
| 20260501233125 | 16 | 221 | 0.0 | 1.6 | 0.00 | 0.00 | 0.00 | 73 | 1015.8 |
| 20260501232621 | 16 | 269 | 0.0 | 3.2 | 0.00 | 0.00 | 0.00 | 72 | 1015.8 |
| 20260501232118 | 16 | 307 | 1.6 | 3.2 | 0.00 | 0.00 | 0.00 | 74 | 1015.9 |
| 20260501231616 | 16 | 333 | 1.6 | 3.2 | 0.00 | 0.00 | 0.00 | 71 | 1015.6 |
| 20260501231114 | 17 | 290 | 3.2 | 3.2 | 0.00 | 0.00 | 0.00 | 71 | 1015.4 |
| 20260501230612 | 17 | 276 | 1.6 | 3.2 | 0.00 | 0.00 | 0.00 | 71 | 1015.3 |
| 20260501230110 | 17 | 281 | 0.0 | 3.2 | 0.00 | 0.00 | 0.00 | 70 | 1015.5 |
| 20260501225608 | 17 | 246 | 4.8 | 4.8 | 0.00 | 0.00 | 0.00 | 69 | 1015.3 |
| 20260501225103 | 17 | 294 | 3.2 | 3.2 | 0.00 | 0.00 | 0.00 | 70 | 1015.5 |
| 20260501224601 | 17 | 279 | 1.6 | 4.8 | 0.00 | 0.00 | 0.00 | 68 | 1015.4 |
| 20260501224058 | 17 | 297 | 0.0 | 6.4 | 0.00 | 0.00 | 0.00 | 70 | 1015.5 |
| 20260501223554 | 17 | 258 | 1.6 | 3.2 | 0.00 | 0.00 | 0.00 | 70 | 1015.5 |
| 20260501223050 | 17 | 253 | 3.2 | 4.8 | 0.00 | 0.00 | 0.00 | 68 | 1015.3 |
| 20260501222547 | 17 | 150 | 0.0 | 3.2 | 0.00 | 0.00 | 0.00 | 68 | 1015.4 |
| 20260501222044 | 17 | 265 | 0.0 | 4.8 | 0.00 | 0.00 | 0.00 | 67 | 1015.3 |
| 20260501221540 | 17 | 296 | 0.0 | 3.2 | 0.00 | 0.00 | 0.00 | 69 | 1015.3 |
| 20260501221038 | 17 | 253 | 1.6 | 6.4 | 0.00 | 0.00 | 0.00 | 67 | 1015.3 |
| 20260501220536 | 17 | 131 | 4.8 | 4.8 | 0.00 | 0.00 | 0.00 | 66 | 1015.4 |
| 20260501220032 | 17 | 266 | 3.2 | 4.8 | 0.00 | 0.00 | 0.00 | 66 | 1015.3 |
| 20260501215528 | 17 | 237 | 3.2 | 3.2 | 0.00 | 0.00 | 0.00 | 65 | 1015.3 |
| 20260501215024 | 17 | 262 | 3.2 | 11.3 | 0.00 | 0.00 | 0.00 | 64 | 1015.1 |
| 20260501214519 | 17 | 250 | 3.2 | 6.4 | 0.00 | 0.00 | 0.00 | 65 | 1015.4 |
| 20260501214015 | 17 | 286 | 3.2 | 6.4 | 0.00 | 0.00 | 0.00 | 64 | 1015.5 |
| 20260501213513 | 17 | 263 | 1.6 | 3.2 | 0.00 | 0.00 | 0.00 | 64 | 1015.4 |
| 20260501213009 | 17 | 263 | 3.2 | 4.8 | 0.00 | 0.00 | 0.00 | 63 | 1015.5 |
| 20260501212505 | 17 | 256 | 4.8 | 8.0 | 0.00 | 0.00 | 0.00 | 63 | 1015.4 |
| 20260501212003 | 17 | 280 | 4.8 | 8.0 | 0.00 | 0.00 | 0.00 | 63 | 1015.3 |
| 20260501211459 | 17 | 255 | 3.2 | 6.4 | 0.00 | 0.00 | 0.00 | 62 | 1015.3 |
| 20260501210956 | 17 | 170 | 4.8 | 6.4 | 0.00 | 0.00 | 0.00 | 62 | 1015.4 |
| 20260501210453 | 17 | 326 | 0.0 | 1.6 | 0.00 | 0.00 | 0.00 | 63 | 1015.4 |
| 20260501205950 | 17 | 332 | 0.0 | 4.8 | 0.00 | 0.00 | 0.00 | 63 | 1015.5 |
| 20260501205446 | 17 | 134 | 0.0 | 4.8 | 0.00 | 0.00 | 0.00 | 63 | 1015.5 |
| 20260501204944 | 17 | 222 | 1.6 | 4.8 | 0.00 | 0.00 | 0.00 | 62 | 1015.6 |
| 20260501204439 | 17 | 277 | 4.8 | 6.4 | 0.00 | 0.00 | 0.00 | 61 | 1015.8 |
| 20260501203936 | 17 | 147 | 4.8 | 6.4 | 0.00 | 0.00 | 0.00 | 60 | 1016.0 |
| 20260501203433 | 17 | 297 | 6.4 | 8.0 | 0.00 | 0.00 | 0.00 | 60 | 1015.8 |
| 20260501202930 | 17 | 285 | 4.8 | 9.7 | 0.00 | 0.00 | 0.00 | 59 | 1015.9 |
| 20260501202427 | 18 | 225 | 3.2 | 12.9 | 0.00 | 0.00 | 0.00 | 58 | 1016.0 |
| 20260501201923 | 17 | 190 | 3.2 | 9.7 | 0.00 | 0.00 | 0.00 | 58 | 1015.9 |
| 20260501201421 | 17 | 293 | 4.8 | 4.8 | 0.00 | 0.00 | 0.00 | 60 | 1016.3 |
| 20260501200917 | 17 | 307 | 3.2 | 9.7 | 0.00 | 0.00 | 0.00 | 60 | 1016.4 |
| 20260501200415 | 17 | 259 | 3.2 | 6.4 | 0.00 | 0.00 | 0.00 | 60 | 1016.3 |
| 20260501195912 | 18 | 266 | 0.0 | 4.8 | 0.00 | 0.00 | 0.00 | 60 | 1016.4 |
| 20260501195409 | 18 | 293 | 4.8 | 9.7 | 0.00 | 0.00 | 0.00 | 59 | 1015.8 |
| 20260501194904 | 18 | 141 | 1.6 | 6.4 | 0.00 | 0.00 | 0.00 | 61 | 1015.7 |
| 20260501194400 | 17 | 300 | 1.6 | 8.0 | 0.00 | 0.00 | 0.00 | 61 | 1015.5 |
| 20260501193856 | 17 | 293 | 1.6 | 9.7 | 0.00 | 0.00 | 0.00 | 61 | 1015.3 |
| 20260501193355 | 17 | 256 | 8.0 | 12.9 | 0.00 | 0.00 | 0.00 | 58 | 1015.3 |
| 20260501192852 | 17 | 359 | 3.2 | 9.7 | 0.00 | 0.00 | 0.00 | 58 | 1015.5 |
| 20260501192349 | 17 | 250 | 0.0 | 11.3 | 0.00 | 0.00 | 0.00 | 59 | 1015.5 |
| 20260501191846 | 18 | 290 | 1.6 | 6.4 | 0.00 | 0.00 | 0.00 | 58 | 1015.5 |
| 20260501191343 | 17 | 258 | 3.2 | 6.4 | 0.00 | 0.00 | 0.00 | 59 | 1015.5 |
| 20260501190840 | 17 | 314 | 6.4 | 6.4 | 0.00 | 0.00 | 0.00 | 61 | 1015.2 |
| 20260501190336 | 17 | 273 | 4.8 | 6.4 | 0.00 | 0.00 | 0.00 | 60 | 1015.6 |
| 20260501185831 | 18 | 260 | 3.2 | 6.4 | 0.00 | 0.00 | 0.00 | 59 | 1015.7 |
| 20260501185328 | 17 | 313 | 1.6 | 9.7 | 0.00 | 0.00 | 0.00 | 59 | 1015.7 |
| 20260501184823 | 18 | 258 | 6.4 | 8.0 | 0.00 | 0.00 | 0.00 | 60 | 1015.5 |
| 20260501184319 | 17 | 298 | 8.0 | 17.7 | 0.00 | 0.00 | 0.00 | 60 | 1015.4 |
| 20260501183815 | 18 | 275 | 4.8 | 14.5 | 0.00 | 0.00 | 0.00 | 60 | 1015.4 |
| 20260501183313 | 18 | 264 | 0.0 | 6.4 | 0.00 | 0.00 | 0.00 | 64 | 1015.5 |
| 20260501182809 | 18 | 258 | 3.2 | 8.0 | 0.00 | 0.00 | 0.00 | 62 | 1015.8 |
| 20260501182307 | 18 | 283 | 4.8 | 11.3 | 0.00 | 0.00 | 0.00 | 63 | 1015.6 |
| 20260501181803 | 17 | 44 | 1.6 | 11.3 | 0.00 | 0.00 | 0.00 | 64 | 1016.1 |
| 20260501181300 | 18 | 276 | 9.7 | 9.7 | 0.00 | 0.00 | 0.00 | 63 | 1016.4 |
| 20260501180757 | 18 | 252 | 6.4 | 9.7 | 0.00 | 0.00 | 0.00 | 62 | 1016.3 |
| 20260501180253 | 18 | 258 | 6.4 | 11.3 | 0.00 | 0.00 | 0.00 | 62 | 1016.6 |
| 20260501175750 | 17 | 259 | 3.2 | 8.0 | 0.00 | 0.00 | 0.00 | 64 | 1016.3 |
| 20260501175247 | 17 | 263 | 4.8 | 9.7 | 0.00 | 0.00 | 0.00 | 63 | 1016.4 |
| 20260501174743 | 17 | 260 | 6.4 | 8.0 | 0.00 | 0.00 | 0.00 | 63 | 1016.7 |
| 20260501174241 | 17 | 229 | 4.8 | 11.3 | 0.00 | 0.00 | 0.00 | 63 | 1016.6 |
| 20260501173739 | 17 | 261 | 3.2 | 9.7 | 0.00 | 0.00 | 0.00 | 63 | 1016.6 |
| 20260501173236 | 17 | 261 | 4.8 | 14.5 | 0.00 | 0.00 | 0.00 | 62 | 1016.3 |
| 20260501172732 | 17 | 286 | 1.6 | 4.8 | 0.00 | 0.00 | 0.00 | 62 | 1016.7 |
| 20260501172227 | 17 | 256 | 8.0 | 14.5 | 0.00 | 0.00 | 0.00 | 62 | 1017.0 |
| 20260501171723 | 17 | 257 | 9.7 | 9.7 | 0.00 | 0.00 | 0.00 | 64 | 1016.9 |
| 20260501171220 | 17 | 293 | 3.2 | 8.0 | 0.00 | 0.00 | 0.00 | 65 | 1017.1 |
| 20260501170717 | 16 | 236 | 1.6 | 12.9 | 0.00 | 0.00 | 0.00 | 66 | 1017.1 |
| 20260501170214 | 17 | 109 | 3.2 | 6.4 | 0.00 | 0.00 | 0.00 | 67 | 1017.2 |
| 20260501165711 | 16 | 278 | 1.6 | 11.3 | 0.00 | 0.00 | 0.00 | 67 | 1017.3 |
| 20260501165208 | 16 | 264 | 6.4 | 12.9 | 0.00 | 0.00 | 0.00 | 67 | 1017.1 |
| 20260501164706 | 16 | 4 | 0.0 | 6.4 | 0.00 | 0.00 | 0.00 | 69 | 1017.3 |
| 20260501164203 | 15 | 257 | 6.4 | 6.4 | 0.00 | 0.00 | 0.00 | 68 | 1017.3 |
| 20260501163659 | 15 | 245 | 4.8 | 8.0 | 0.00 | 0.00 | 0.00 | 68 | 1017.0 |
| 20260501163156 | 16 | 269 | 1.6 | 9.7 | 0.00 | 0.00 | 0.00 | 68 | 1017.1 |
| 20260501162652 | 16 | 255 | 4.8 | 8.0 | 0.00 | 0.00 | 0.00 | 68 | 1017.3 |
| 20260501162149 | 16 | 277 | 0.0 | 6.4 | 0.00 | 0.00 | 0.00 | 71 | 1017.3 |
| 20260501161646 | 16 | 311 | 1.6 | 6.4 | 0.00 | 0.00 | 0.00 | 70 | 1017.2 |
| 20260501161143 | 15 | 266 | 0.0 | 4.8 | 0.00 | 0.00 | 0.00 | 71 | 1017.1 |
| 20260501160640 | 15 | 256 | 6.4 | 6.4 | 0.00 | 0.00 | 0.00 | 69 | 1017.1 |
| 20260501160137 | 15 | 268 | 9.7 | 9.7 | 0.00 | 0.00 | 0.00 | 69 | 1017.2 |
| 20260501155634 | 15 | 279 | 6.4 | 9.7 | 0.00 | 0.00 | 0.00 | 68 | 1017.0 |
| 20260501155131 | 15 | 329 | 3.2 | 8.0 | 0.00 | 0.00 | 0.00 | 68 | 1017.3 |
| 20260501154628 | 15 | 265 | 4.8 | 8.0 | 0.00 | 0.00 | 0.00 | 68 | 1017.1 |
| 20260501154125 | 15 | 255 | 3.2 | 8.0 | 0.00 | 0.00 | 0.00 | 71 | 1017.2 |
| 20260501153623 | 15 | 248 | 0.0 | 4.8 | 0.00 | 0.00 | 0.00 | 74 | 1017.4 |
| 20260501153120 | 15 | 284 | 3.2 | 6.4 | 0.00 | 0.00 | 0.00 | 73 | 1017.9 |
| 20260501152616 | 15 | 336 | 1.6 | 3.2 | 0.00 | 0.00 | 0.00 | 75 | 1017.4 |
| 20260501152113 | 15 | 256 | 1.6 | 8.0 | 0.00 | 0.00 | 0.00 | 73 | 1017.1 |
| 20260501151610 | 15 | 295 | 3.2 | 4.8 | 0.00 | 0.00 | 0.00 | 74 | 1017.1 |
| 20260501151107 | 15 | 260 | 3.2 | 4.8 | 0.00 | 0.00 | 0.00 | 75 | 1017.0 |
| 20260501150602 | 15 | 232 | 0.0 | 6.4 | 0.00 | 0.00 | 0.00 | 75 | 1017.0 |
| 20260501150059 | 14 | 258 | 4.8 | 8.0 | 0.00 | 0.00 | 0.00 | 76 | 1017.1 |
| 20260501145555 | 14 | 244 | 3.2 | 6.4 | 0.00 | 0.00 | 0.00 | 77 | 1016.8 |
| 20260501145053 | 14 | 242 | 0.0 | 4.8 | 0.00 | 0.00 | 0.00 | 77 | 1017.0 |
| 20260501144549 | 14 | 302 | 1.6 | 4.8 | 0.00 | 0.00 | 0.00 | 78 | 1017.3 |
| 20260501144043 | 14 | 260 | 3.2 | 3.2 | 0.00 | 0.00 | 0.00 | 79 | 1017.4 |
| 20260501143540 | 14 | 236 | 0.0 | 3.2 | 0.00 | 0.00 | 0.00 | 80 | 1017.3 |
| 20260501143038 | 14 | 235 | 1.6 | 3.2 | 0.00 | 0.00 | 0.00 | 81 | 1016.9 |
| 20260501142535 | 14 | 287 | 1.6 | 4.8 | 0.00 | 0.00 | 0.00 | 82 | 1017.3 |
| 20260501142031 | 14 | 123 | 0.0 | 3.2 | 0.00 | 0.00 | 0.00 | 82 | 1017.1 |
| 20260501141526 | 14 | 161 | 3.2 | 8.0 | 0.00 | 0.00 | 0.00 | 83 | 1016.9 |
| 20260501141025 | 14 | 150 | 6.4 | 8.0 | 0.00 | 0.00 | 0.00 | 84 | 1017.1 |
| 20260501140520 | 14 | 147 | 4.8 | 12.9 | 0.00 | 0.00 | 0.00 | 84 | 1016.9 |
| 20260501140016 | 14 | 192 | 0.0 | 4.8 | 0.00 | 0.00 | 0.00 | 85 | 1016.8 |
| 20260501135514 | 14 | 48 | 1.6 | 4.8 | 0.00 | 0.00 | 0.00 | 86 | 1016.9 |
| 20260501135011 | 14 | 344 | 3.2 | 4.8 | 0.00 | 0.00 | 0.00 | 87 | 1016.5 |
| 20260501134508 | 14 | 312 | 0.0 | 6.4 | 0.00 | 0.00 | 0.00 | 86 | 1016.5 |
| 20260501134004 | 14 | 222 | 1.6 | 6.4 | 0.00 | 0.00 | 0.00 | 86 | 1016.5 |
| 20260501133501 | 14 | 250 | 1.6 | 4.8 | 0.00 | 0.00 | 0.00 | 86 | 1016.6 |